Regional Weather Roundup
Issued by NWS

Home | Current Version | Previous Version | Graphics & Text | Print | Product List | Glossary On
Versions: 1 2 3 4 5 6 7 8 9 10 11 12 13 14 15 16 17 18 19 20 21 22 23 24 25 26 27 28 29 30 31 32 33 34 35 36 37 38 39 40 41 42 43 44 45 46 47 48 49 50
891
ASUS43 KMKX 051721
RWRWI

WISCONSIN REGIONAL WEATHER ROUNDUP
NATIONAL WEATHER SERVICE MILWAUKEE/SULLIVAN WI
1100 AM CST FRI FEB 05 2016

NOTE: "FAIR" INDICATES FEW OR NO CLOUDS BELOW 12,000 FEET WITH NO
SIGNIFICANT WEATHER AND/OR OBSTRUCTIONS TO VISIBILITY.

WIZ001-002-006>008-014>016-023>028-051800-
NORTHWEST WISCONSIN

CITY           SKY/WX    TMP DP  RH WIND       PRES   REMARKS
SUPERIOR ARPT  CLOUDY    17   9  70 S5        30.30F WCI  10
ASHLAND        CLOUDY    17  10  74 SW3       30.31F
HAYWARD        CLOUDY    16   9  74 S6        30.29F WCI   7
SIREN          MOSUNNY   15  13  92 S3        30.30F
CUMBERLAND     MOSUNNY   10   9  92 CALM      30.30S
RICE LAKE      MOSUNNY   10   8  89 CALM      30.33F
CHETEK         MOSUNNY   14  12  91 CALM      30.33F
LADYSMITH      MOSUNNY   12   9  88 CALM      30.33S
EAU CLAIRE     CLOUDY    15  13  91 CALM      30.35S
MENOMONIE      MOSUNNY   15  10  81 CALM      30.35F
NEW RICHMOND   CLOUDY    15  12  89 S8        30.33S WCI   4
OSCEOLA        CLOUDY    15  14  98 S6        30.35F WCI   6
$$

WIZ003>005-009-010-017-018-051800-
NORTH CENTRAL WISCONSIN

CITY           SKY/WX    TMP DP  RH WIND       PRES   REMARKS
MANITOWISH WTR PTSUNNY   15  13  95 S3        30.25S
ARBOR VITAE    MOSUNNY   17  12  82 CALM      30.25F
WOODRUFF       MOSUNNY   17  12  82 CALM      30.25F
RHINELANDER    SUNNY     17  10  74 SW3       30.26S
EAGLE RIVER    SUNNY     15  11  85 CALM      30.25S
LAND O LAKES   SUNNY     19  10  69 CALM      30.24F
PHILLIPS       MOSUNNY   14  12  91 CALM      30.28S
TOMAHAWK       CLOUDY    18  10  70 CALM      30.29R
MEDFORD        MOSUNNY   13  11  92 CALM      30.29S
MERRILL        CLOUDY    18  10  72 W6        30.31R WCI  10
$$

WIZ029-030-035-036-043>047-051800-
CENTRAL WISCONSIN

CITY           SKY/WX    TMP DP  RH WIND       PRES   REMARKS
WAUSAU         MOSUNNY   20  12  71 NW6       30.30R WCI  12
MOSINEE        SUNNY     21  14  73 CALM      30.33R
MARSHFIELD     CLOUDY    16  10  77 W6        30.31S HAZE    WCI   7
STEVENS POINT  SUNNY     20  13  72 W6        30.33S WCI  13
WAUPACA        SUNNY     28  15  59 W6        30.35S WCI  21
WAUTOMA        SUNNY     25  15  65 W5        30.36R WCI  19
WISC RAPIDS    SUNNY     21  13  71 CALM      30.35S
CAMP DOUGLAS   PTSUNNY   21  21 100 W3        30.36R
$$

WIZ011>013-019>022-031-037>040-048>050-051800-
NORTHEAST WISCONSIN

CITY           SKY/WX    TMP DP  RH WIND       PRES   REMARKS
ANTIGO         SUNNY     12  10  92 CALM      30.28S FOG
SHAWANO        SUNNY     25  14  63 NW3       30.33F
OCONTO         SUNNY     22  13  67 NW3       30.34S
STURGEON BAY   SUNNY     21  12  68 NW8       30.34F WCI  12
GREEN BAY      SUNNY     21  13  71 NW8       30.34F WCI  11
MANITOWOC      SUNNY     27  17  66 NW10      30.34F WCI  17
APPLETON       MOSUNNY   19  12  73 VRB6      30.32S WCI  11
CLINTONVILLE   SUNNY     25  14  63 SW6       30.33F WCI  18
OSHKOSH        CLOUDY    21  14  74 W5        30.34S WCI  15
$$

WIZ032>034-041-042-053>061-051800-
SOUTHWEST WISCONSIN

CITY           SKY/WX    TMP DP  RH WIND       PRES   REMARKS
LA CROSSE      CLOUDY    17  12  80 S5        30.39S WCI  10
SPARTA         CLOUDY    18  17  95 W5        30.38S WCI  11
VIROQUA        CLOUDY    17  16  96 W6        30.34S WCI   9
BOSCOBEL       CLOUDY    23  16  74 S6        30.40S WCI  16
PRAIRIE DU CHI CLOUDY    20  11  67 CALM      30.40S
PLATTEVILLE    SUNNY     24  19  79 CALM      30.38R
$$

WIZ056-057-062-063-064-067-068-051800-
SOUTH CENTRAL WISCONSIN

CITY           SKY/WX    TMP DP  RH WIND       PRES   REMARKS
REEDSBURG      CLOUDY    22  16  78 W3        30.36S
BARABOO/DELLS  CLOUDY    23  16  73 W5        30.36S WCI  17
LONE ROCK      CLOUDY    22  16  78 W3        30.39S
MINERAL POINT  CLOUDY    27  19  74 CALM      30.36S
MADISON        CLOUDY    26  16  65 W5        30.36S WCI  20
MIDDLETON      CLOUDY    26  18  71 CALM      30.37S
WATERTOWN      SUNNY     25  17  72 W6        30.36S WCI  18
MONROE         MOSUNNY   27  19  74 NW5       30.36S WCI  21
JANESVILLE     MOSUNNY   28  19  69 N6        30.37S WCI  22
$$

WIZ051-052-058>065-066-070>072-051800-
SOUTHEAST WISCONSIN

CITY           SKY/WX    TMP DP  RH WIND       PRES   REMARKS
MILWAUKEE      MOSUNNY   27  17  66 W8        30.36R WCI  19
WAUKESHA       SUNNY     25  18  74 W6        30.36S WCI  18
MILWAUKEE/TIMM SUNNY    N/A N/A N/A NW8       30.36S
RACINE         SUNNY     28  17  63 NW8       30.37S WCI  20
BURLINGTON     CLOUDY    25  17  70 NW9       30.37S WCI  16
KENOSHA        CLOUDY    27  20  75 NW9       30.36R WCI  18
FOND DU LAC    FLURRIES  23  15  71 W6        30.35S WCI  16
SHEBOYGAN      MOSUNNY   24  14  65 NW8       30.34S WCI  15
WEST BEND      MOSUNNY   27  16  63 NW6       30.35S WCI  20
JUNEAU         CLOUDY    23  15  71 SW3       30.37S
$$

LSZ147-162-051800-
LAKE SUPERIOR

STATION/POSITION TIME  TEMP    WIND        PRES    WAVE
                       AIR SEA DIR/SP/G            HT/PER
                 (UTC) (F)     (DEG/KT/KT) (MB)    (FT/S)
DEVILS ISLAND    1700   20     220/ 10/ 12 1027.2F
PORT WING        1440   10     150/  3/  5   N/A
SAXON HARBOR     1640   20                 1026.1S
$$

LMZ867-665-643>646-051800-
LAKE MICHIGAN

STATION/POSITION TIME  TEMP    WIND        PRES    WAVE
                       AIR SEA DIR/SP/G            HT/PER
                 (UTC) (F)     (DEG/KT/KT) (MB)    (FT/S)
CHAMBERS ISLAND  1600   26     300/  8/ 13 1026.8R
ALGOMA LAKESHORE 1641          320/  6/  8   N/A
KEWAUNEE LAKESHO 1600   22     310/  7/ 13 1026.3R
SHEBOYGAN LAKESH 1700   24     320/  8/ 11 1028.8S
PORT WASHINGTON  1600   26     310/  6/ 12 1028.4F
MILWAUKEE LAKESH 1710   27     300/  6/  7   N/A
KENOSHA   LAKESH 1700   27     320/  6/ 10 1028.1R
$$

TC  - TEMPERATURE IN CELSIUS
VSB - VISIBILITY IN STATUTE MILES
WCI - WIND CHILL INDEX
HX  - HEAT INDEX





USA.gov is the U.S. government's official web portal to all federal, state and local government web resources and services.